| time (UTC) | temp F | wind direction | speed knots | gust knots | rain 1hr in | rain 24hr in | rain mn in | humidity % | barometer mb |
| 20260504082006 | 60 | 22 | 0.9 | 3.5 | 0.00 | 0.02 | 0.02 | 83 | 1016.4 |
| 20260504081006 | 60 | 50 | 2.6 | 3.5 | 0.00 | 0.02 | 0.02 | 83 | 1016.5 |
| 20260504045005 | 56 | 324 | 1.7 | 3.5 | 0.00 | 0.02 | 0.02 | 81 | 1015.7 |
| 20260504044006 | 55 | 0 | 0.0 | 1.7 | 0.00 | 0.02 | 0.02 | 79 | 1015.7 |
| 20260504043005 | 55 | 274 | 0.9 | 1.7 | 0.00 | 0.02 | 0.02 | 78 | 1015.5 |
| 20260504042006 | 55 | 265 | 1.7 | 1.7 | 0.00 | 0.02 | 0.02 | 78 | 1015.7 |
| 20260504041006 | 54 | 274 | 1.7 | 1.7 | 0.00 | 0.02 | 0.02 | 76 | 1015.8 |
| 20260504040006 | 55 | 264 | 1.7 | 1.7 | 0.00 | 0.02 | 0.02 | 73 | 1015.7 |
| 20260504035005 | 54 | 225 | 0.9 | 3.5 | 0.00 | 0.02 | 0.02 | 70 | 1015.7 |
| 20260504034006 | 55 | 0 | 0.0 | 3.5 | 0.00 | 0.02 | 0.02 | 64 | 1015.7 |
| 20260504033005 | 56 | 187 | 1.7 | 6.1 | 0.00 | 0.02 | 0.02 | 68 | 1015.3 |
| 20260504032006 | 54 | 129 | 3.5 | 7.0 | 0.00 | 0.02 | 0.02 | 67 | 1015.6 |
| 20260504031005 | 54 | 0 | 0.0 | 1.7 | 0.00 | 0.02 | 0.02 | 63 | 1015.5 |
| 20260504030006 | 54 | 246 | 0.9 | 1.7 | 0.00 | 0.02 | 0.02 | 66 | 1015.6 |
| 20260504025006 | 54 | 0 | 0.0 | 3.5 | 0.00 | 0.02 | 0.02 | 68 | 1015.5 |
| 20260504023006 | 54 | 280 | 1.7 | 1.7 | 0.00 | 0.02 | 0.02 | 59 | 1015.9 |
| 20260504022006 | 54 | 280 | 0.9 | 1.7 | 0.00 | 0.02 | 0.02 | 57 | 1015.8 |
| 20260504021005 | 54 | 273 | 1.7 | 3.5 | 0.00 | 0.02 | 0.02 | 58 | 1015.8 |
| 20260504015005 | 54 | 246 | 1.7 | 3.5 | 0.00 | 0.02 | 0.02 | 69 | 1015.9 |
| 20260504014005 | 52 | 276 | 1.7 | 3.5 | 0.01 | 0.02 | 0.02 | 72 | 1015.9 |
| 20260504013005 | 53 | 0 | 0.0 | 3.5 | 0.02 | 0.02 | 0.02 | 77 | 1015.8 |
| 20260504012007 | 52 | 262 | 1.7 | 3.5 | 0.02 | 0.02 | 0.02 | 83 | 1016.0 |
| 20260504011005 | 52 | 227 | 1.7 | 1.7 | 0.02 | 0.02 | 0.02 | 80 | 1016.0 |
| 20260504010006 | 52 | 288 | 0.9 | 3.5 | 0.02 | 0.02 | 0.02 | 82 | 1016.2 |
| 20260504004005 | 53 | 0 | 0.0 | 3.5 | 0.01 | 0.01 | 0.01 | 83 | 1016.4 |
| 20260504003005 | 54 | 175 | 2.6 | 3.5 | 0.00 | 0.00 | 0.00 | 76 | 1016.6 |
| 20260504002005 | 54 | 228 | 1.7 | 1.7 | 0.00 | 0.00 | 0.00 | 73 | 1016.7 |
| 20260504001006 | 54 | 253 | 0.9 | 1.7 | 0.00 | 0.00 | 0.00 | 76 | 1016.8 |
| 20260504000006 | 54 | 260 | 0.9 | 1.7 | 0.00 | 0.00 | 0.00 | 76 | 1017.0 |
| 20260503235005 | 55 | 0 | 0.0 | 3.5 | 0.00 | 0.00 | 0.00 | 79 | 1017.0 |
| 20260503234005 | 55 | 163 | 1.7 | 5.2 | 0.00 | 0.00 | 0.00 | 76 | 1016.9 |
| 20260503233006 | 55 | 64 | 2.6 | 3.5 | 0.00 | 0.00 | 0.00 | 82 | 1016.9 |
| 20260503231005 | 55 | 204 | 0.9 | 1.7 | 0.00 | 0.00 | 0.00 | 83 | 1017.2 |
| 20260503225005 | 54 | 0 | 0.0 | 1.7 | 0.00 | 0.00 | 0.00 | 85 | 1016.8 |
| 20260503224006 | 54 | 0 | 0.0 | 1.7 | 0.00 | 0.00 | 0.00 | 84 | 1016.6 |
| 20260503222005 | 54 | 0 | 0.0 | 0.0 | 0.00 | 0.00 | 0.00 | 83 | 1016.8 |
| 20260503221005 | 54 | 0 | 0.0 | 0.0 | 0.00 | 0.00 | 0.00 | 83 | 1017.0 |
| 20260503215005 | 54 | 0 | 0.0 | 1.7 | 0.00 | 0.00 | 0.00 | 82 | 1017.0 |
| 20260503214005 | 55 | 239 | 0.9 | 1.7 | 0.00 | 0.00 | 0.00 | 82 | 1017.0 |
| 20260503212005 | 54 | 0 | 0.0 | 1.7 | 0.00 | 0.00 | 0.00 | 83 | 1017.0 |
| 20260503211005 | 55 | 0 | 0.0 | 0.0 | 0.00 | 0.00 | 0.00 | 83 | 1017.1 |
| 20260503210006 | 55 | 0 | 0.0 | 1.7 | 0.00 | 0.00 | 0.00 | 83 | 1017.2 |
| 20260503205005 | 55 | 0 | 0.0 | 1.7 | 0.00 | 0.00 | 0.00 | 83 | 1017.1 |
| 20260503204005 | 55 | 0 | 0.0 | 1.7 | 0.00 | 0.00 | 0.00 | 82 | 1017.1 |
| 20260503202004 | 54 | 229 | 0.9 | 1.7 | 0.00 | 0.00 | 0.00 | 83 | 1017.4 |
| 20260503201005 | 55 | 0 | 0.0 | 1.7 | 0.00 | 0.00 | 0.00 | 82 | 1017.0 |
| 20260503200005 | 55 | 0 | 0.0 | 1.7 | 0.00 | 0.00 | 0.00 | 82 | 1017.2 |
| 20260503194005 | 54 | 0 | 0.0 | 0.0 | 0.00 | 0.00 | 0.00 | 84 | 1017.1 |
| 20260503193004 | 54 | 0 | 0.0 | 1.7 | 0.00 | 0.00 | 0.00 | 83 | 1017.0 |
| 20260503192005 | 54 | 253 | 0.9 | 1.7 | 0.00 | 0.00 | 0.00 | 83 | 1017.0 |
| 20260503191004 | 54 | 0 | 0.0 | 1.7 | 0.00 | 0.00 | 0.00 | 84 | 1016.7 |
| 20260503190005 | 54 | 0 | 0.0 | 1.7 | 0.00 | 0.00 | 0.00 | 83 | 1016.4 |
| 20260503184005 | 55 | 0 | 0.0 | 1.7 | 0.00 | 0.00 | 0.00 | 80 | 1016.6 |
| 20260503183005 | 55 | 0 | 0.0 | 1.7 | 0.00 | 0.00 | 0.00 | 80 | 1016.6 |
| 20260503182006 | 56 | 0 | 0.0 | 1.7 | 0.00 | 0.00 | 0.00 | 79 | 1016.8 |
| 20260503180005 | 56 | 0 | 0.0 | 1.7 | 0.00 | 0.00 | 0.00 | 76 | 1016.6 |
| 20260503175005 | 57 | 349 | 0.9 | 3.5 | 0.00 | 0.00 | 0.00 | 73 | 1016.7 |
| 20260503174004 | 57 | 0 | 0.0 | 1.7 | 0.00 | 0.00 | 0.00 | 70 | 1016.6 |
| 20260503173005 | 58 | 0 | 0.0 | 7.0 | 0.00 | 0.00 | 0.00 | 74 | 1016.6 |
| 20260503172004 | 58 | 67 | 2.6 | 7.0 | 0.00 | 0.00 | 0.00 | 78 | 1016.7 |
| 20260503171004 | 59 | 94 | 5.2 | 7.0 | 0.00 | 0.00 | 0.00 | 74 | 1016.8 |
| 20260503151004 | 60 | 117 | 5.2 | 11.3 | 0.00 | 0.00 | 0.00 | 66 | 1017.1 |
| 20260503131004 | 62 | 120 | 5.2 | 9.6 | 0.00 | 0.00 | 0.00 | 64 | 1018.0 |